Terug naar catalogus

FENGYUN 1C DEB

ActiefPO
NORAD 31892·DEBRIS·🇨🇳 China

Gelanceerd May 10, 1999 vanaf Taiyuan Satellite Launch Center

Loading…

Volgende Passages (komende 24 uur)

TLE

VerouderendSource: Space-Track

Epoch: Sep 7, 2026, 09:06 UTC

1 31892U 99025CKT 26250.37984774  .00001009  00000-0  25820-3 0  9992
2 31892  99.2947  89.0379 0195617 218.0527 140.6708 14.42290831687770

Volg FENGYUN 1C DEB in realtime met AllMySat

Download on the App Store